SWR64E LSZH-KMIA

Flight info

Callsign SWR64E
Flight time N/A
Altitude 34000
Route VEBIT T10 TORPA DCT REKLA DCT RLP DCT ROTSI DCT AMODO DCT COHPA UM729 RESMI UN491 LGL UN502 JSY DCT LIZAD DCT ARKIL/M082F340 DCT DINIM/M082F350 NATG NICSO/M082F360 DCT LOMPI M202 MUNEY/M082F380 M202 ONGOT DCT PADRK M203 SNAGY/N0471F380 BNFSH3
Aircraft B77W/H-SDE1E2E3FGHIJ2J3J4J5M1RWXY/LB1D1

Departure

Time N/A
Airport Zürich Airport (LSZH)

Arrival

Time 2026-04-30 18:46
Airport Miami International Airport (KMIA)
Time Latitude Longitude Altitude Speed Heading
2026-04-30 17:47 30.09195 -76.21570 36924 ft 458 kts 238°
2026-04-30 17:48 29.94694 -76.41063 36921 ft 458 kts 238°
2026-04-30 17:50 29.78124 -76.63223 36925 ft 456 kts 238°
2026-04-30 17:52 29.65724 -76.79729 36935 ft 456 kts 237°
2026-04-30 17:54 29.49467 -77.06154 36939 ft 451 kts 245°
2026-04-30 17:56 29.35679 -77.30299 36943 ft 453 kts 245°
2026-04-30 17:58 29.25354 -77.48281 36936 ft 448 kts 245°
2026-04-30 18:00 29.11603 -77.72118 36951 ft 453 kts 244°
2026-04-30 18:01 29.02888 -77.87124 36951 ft 455 kts 244°
2026-04-30 18:02 28.92382 -78.05151 36947 ft 455 kts 244°
2026-04-30 18:04 28.81857 -78.23137 36951 ft 456 kts 243°
2026-04-30 18:06 28.67766 -78.47096 36956 ft 457 kts 243°
2026-04-30 18:08 28.55337 -78.68116 36956 ft 459 kts 243°
2026-04-30 18:10 28.41101 -78.92066 36959 ft 457 kts 243°
2026-04-30 18:11 28.33304 -79.03495 36965 ft 475 kts 221°
2026-04-30 18:11 28.23833 -79.07532 36965 ft 494 kts 204°
2026-04-30 18:13 28.07389 -79.13510 36970 ft 500 kts 204°
2026-04-30 18:14 27.90874 -79.19654 36957 ft 501 kts 204°
2026-04-30 18:15 27.71063 -79.26982 36952 ft 493 kts 204°
2026-04-30 18:16 27.64730 -79.29310 36543 ft 476 kts 204°
2026-04-30 18:16 27.58502 -79.31609 35726 ft 466 kts 204°
2026-04-30 18:17 27.55429 -79.32743 35278 ft 463 kts 204°
2026-04-30 18:17 27.52374 -79.33869 34811 ft 460 kts 204°
2026-04-30 18:17 27.46315 -79.36101 33859 ft 456 kts 204°
2026-04-30 18:18 27.43346 -79.37193 33355 ft 454 kts 204°
2026-04-30 18:18 27.40357 -79.38291 32870 ft 451 kts 204°
2026-04-30 18:18 27.37385 -79.39383 32391 ft 448 kts 204°
2026-04-30 18:18 27.34434 -79.40466 31926 ft 445 kts 204°
2026-04-30 18:19 27.31498 -79.41542 31454 ft 442 kts 204°
2026-04-30 18:19 27.28579 -79.42612 30977 ft 440 kts 204°
2026-04-30 18:19 27.25675 -79.43675 30523 ft 438 kts 204°
2026-04-30 18:19 27.22784 -79.44732 30022 ft 436 kts 204°
2026-04-30 18:20 27.19943 -79.45771 29478 ft 434 kts 204°
2026-04-30 18:20 27.17081 -79.46818 28946 ft 432 kts 203°
2026-04-30 18:20 27.14233 -79.47859 28436 ft 429 kts 203°
2026-04-30 18:20 27.11405 -79.48893 27938 ft 427 kts 203°
2026-04-30 18:21 27.08590 -79.49921 27436 ft 424 kts 203°
2026-04-30 18:21 27.05791 -79.50943 26949 ft 422 kts 202°
2026-04-30 18:21 27.03005 -79.51959 26456 ft 420 kts 201°
2026-04-30 18:21 27.00231 -79.52969 25980 ft 418 kts 201°
2026-04-30 18:22 26.97468 -79.53975 25486 ft 417 kts 201°
2026-04-30 18:22 26.91967 -79.55979 24517 ft 415 kts 201°
2026-04-30 18:22 26.89225 -79.56976 24037 ft 414 kts 201°
2026-04-30 18:23 26.86522 -79.57955 23547 ft 414 kts 201°
2026-04-30 18:23 26.83785 -79.58942 22988 ft 413 kts 201°
2026-04-30 18:23 26.81060 -79.59923 22491 ft 410 kts 201°
2026-04-30 18:23 26.78355 -79.60896 21993 ft 407 kts 201°
2026-04-30 18:24 26.73001 -79.62824 21036 ft 397 kts 201°
2026-04-30 18:24 26.70414 -79.63754 20564 ft 385 kts 201°
2026-04-30 18:24 26.67902 -79.64658 20112 ft 375 kts 201°
2026-04-30 18:25 26.65457 -79.65539 19694 ft 374 kts 201°
2026-04-30 18:25 26.60488 -79.67318 18779 ft 376 kts 201°
2026-04-30 18:25 26.57988 -79.68192 18322 ft 377 kts 201°
2026-04-30 18:26 26.52975 -79.69941 17315 ft 377 kts 201°
2026-04-30 18:26 26.50475 -79.70815 16847 ft 376 kts 201°
2026-04-30 18:26 26.47985 -79.71685 16378 ft 375 kts 201°
2026-04-30 18:27 26.43873 -79.74654 15744 ft 345 kts 232°
2026-04-30 18:27 26.42310 -79.76643 15514 ft 337 kts 232°
2026-04-30 18:28 26.39219 -79.80439 15058 ft 323 kts 231°
2026-04-30 18:28 26.37765 -79.82308 14855 ft 314 kts 237°
2026-04-30 18:28 26.35353 -79.86262 14456 ft 306 kts 240°
2026-04-30 18:29 26.34156 -79.88225 14258 ft 306 kts 239°
2026-04-30 18:29 26.30572 -79.93979 13651 ft 298 kts 239°
2026-04-30 18:30 26.28218 -79.97736 13232 ft 293 kts 239°
2026-04-30 18:30 26.25820 -80.01344 12832 ft 292 kts 225°
2026-04-30 18:31 26.24037 -80.02512 12658 ft 307 kts 201°
2026-04-30 18:31 26.19795 -80.03519 12243 ft 314 kts 194°
2026-04-30 18:32 26.15550 -80.04445 11830 ft 311 kts 195°
2026-04-30 18:32 26.13447 -80.04915 11615 ft 307 kts 195°
2026-04-30 18:32 26.09297 -80.05858 11213 ft 301 kts 195°
2026-04-30 18:33 26.07251 -80.06325 11014 ft 299 kts 195°
2026-04-30 18:33 26.03201 -80.07353 10529 ft 299 kts 197°
2026-04-30 18:33 26.01180 -80.07887 10294 ft 298 kts 197°
2026-04-30 18:34 25.99194 -80.08408 10046 ft 295 kts 196°
2026-04-30 18:34 25.95253 -80.09432 9531 ft 287 kts 196°
2026-04-30 18:34 25.93328 -80.09941 9270 ft 280 kts 200°
2026-04-30 18:35 25.91665 -80.10938 9022 ft 270 kts 226°
2026-04-30 18:35 25.90408 -80.12478 8842 ft 271 kts 231°
2026-04-30 18:35 25.89138 -80.14060 8598 ft 278 kts 230°
2026-04-30 18:36 25.87845 -80.17837 8151 ft 266 kts 269°
2026-04-30 18:36 25.87818 -80.19887 7875 ft 267 kts 269°
2026-04-30 18:36 25.87701 -80.23999 7275 ft 265 kts 268°
2026-04-30 18:37 25.87638 -80.25989 6924 ft 250 kts 268°
2026-04-30 18:37 25.87579 -80.27872 6527 ft 240 kts 268°
2026-04-30 18:37 25.87836 -80.29673 6123 ft 239 kts 294°
2026-04-30 18:37 25.88642 -80.31269 5764 ft 237 kts 297°
2026-04-30 18:38 25.89428 -80.32871 5496 ft 234 kts 296°
2026-04-30 18:38 25.90189 -80.34442 5331 ft 228 kts 296°
2026-04-30 18:38 25.90923 -80.35954 5140 ft 224 kts 297°
2026-04-30 18:38 25.91665 -80.37487 4986 ft 227 kts 297°
2026-04-30 18:39 25.92421 -80.39049 4826 ft 232 kts 297°
2026-04-30 18:39 25.93194 -80.40629 4693 ft 233 kts 297°
2026-04-30 18:39 25.93972 -80.42214 4499 ft 234 kts 296°
2026-04-30 18:39 25.94754 -80.43805 4339 ft 234 kts 294°
2026-04-30 18:40 25.95116 -80.45524 4107 ft 230 kts 263°
2026-04-30 18:40 25.94588 -80.47146 3927 ft 224 kts 231°
2026-04-30 18:40 25.93404 -80.48197 3764 ft 221 kts 209°
2026-04-30 18:40 25.92043 -80.48985 3624 ft 218 kts 208°
2026-04-30 18:41 25.90702 -80.49690 3451 ft 208 kts 198°
2026-04-30 18:41 25.89308 -80.49674 3273 ft 201 kts 161°
2026-04-30 18:41 25.88280 -80.48716 3095 ft 192 kts 118°
2026-04-30 18:41 25.87903 -80.47260 3037 ft 200 kts 105°
2026-04-30 18:42 25.87503 -80.45784 3005 ft 198 kts 113°
2026-04-30 18:42 25.86422 -80.43033 2513 ft 190 kts 119°
2026-04-30 18:42 25.85814 -80.41786 2267 ft 180 kts 121°
2026-04-30 18:45 25.80719 -80.31761 360 ft 139 kts 123°
2026-04-30 18:45 25.80238 -80.30837 170 ft 139 kts 122°
2026-04-30 18:45 25.79756 -80.29896 26 ft 140 kts 122°
2026-04-30 18:46 25.79331 -80.29065 19 ft 101 kts 120°
2026-04-30 18:46 25.79159 -80.28724 19 ft 28 kts 118°
2026-04-30 18:46 25.79106 -80.28575 19 ft 13 kts 100°
2026-04-30 18:46 25.79109 -80.28486 19 ft 9 kts 71°
2026-04-30 18:47 25.79145 -80.28432 20 ft 8 kts 47°
2026-04-30 18:47 25.79165 -80.28379 20 ft 8 kts 96°
2026-04-30 18:47 25.79143 -80.28322 20 ft 8 kts 118°
2026-04-30 18:47 25.79113 -80.28269 21 ft 8 kts 124°
2026-04-30 18:48 25.79083 -80.28216 21 ft 8 kts 119°
2026-04-30 18:48 25.79056 -80.28162 25 ft 8 kts 119°
2026-04-30 18:48 25.79028 -80.28107 23 ft 8 kts 119°
2026-04-30 18:48 25.79001 -80.28053 23 ft 8 kts 120°
2026-04-30 18:49 25.78973 -80.27999 25 ft 8 kts 120°
2026-04-30 18:49 25.78946 -80.27944 22 ft 8 kts 114°
2026-04-30 18:49 25.78939 -80.27874 20 ft 11 kts 90°
2026-04-30 18:49 25.78941 -80.27790 20 ft 11 kts 88°
2026-04-30 18:50 25.78945 -80.27707 20 ft 11 kts 87°
2026-04-30 18:50 25.78954 -80.27624 20 ft 11 kts 78°
2026-04-30 18:50 25.78968 -80.27542 20 ft 11 kts 86°
2026-04-30 18:50 25.78934 -80.27468 20 ft 11 kts 116°
2026-04-30 18:51 25.78925 -80.27393 20 ft 8 kts 90°
2026-04-30 18:51 25.78946 -80.27351 20 ft 7 kts 27°
2026-04-30 18:51 25.78987 -80.27344 21 ft 2 kts
2026-04-30 18:51 25.78999 -80.27344 20 ft 1 kts
2026-04-30 18:52 25.79006 -80.27343 21 ft 0 kts